COSMOS 2135

导读

COSMOS 2135是苏联解体后独联体(CIS)发射的"宇宙"系列卫星,于1991年2月26日8时升空。作为冷战末期苏联航天项目延续,该卫星延续"宇宙"系列保密属性,大概率承担军事侦察、空间物理探测或技术试验任务,是独联体时期承接苏联航天遗产的典型产物,也体现了后苏联时代航天活动的过渡特征,至今在空间目标监测目录中仍有轨道记录。

基本信息
目录编号:
21130
目录名称:
COSMOS 2135
国际标识:
1991-013A
轨道中心:
EARTH
卫星名称:
COSMOS 2135
卫星全名:
--
卫星状态:
在轨 (已飞行12890 天)
发射日期:
1991-02-26 UTC
国别 :
俄罗斯(独联体) (CIS)
星等 :
--
轨道信息
数据来源 国际轨道数据 AOE轨道数据
星历时间 2026-06-12T13:20:40+0800
14小时前
查看轨道信息
2026-06-13T00:00:00+0800
3小时前
查看轨道信息
半长轴 7346.277km 7346.275km
偏心率 0.0064963 0.0065113
轨道倾角 82.828° 82.829°
近地点辐角 214.920° 213.598°
升交点赤经 220.415° 220.079°
平近点角 144.769° 188.607°
近地点 920.416km 920.304km
远地点 1015.864km 1015.972km
周期 104.439分钟 104.438分钟
每日圈数 13.788018 13.788023
详细信息
使用方式:
暂无
2D轨道图
3D轨道图
轨道高度分析图
轨道倾角分析图
轨道综合分析图
查看轨道综合分析图